Location: Keeble Observatory
(37.7625°N, 77.4755°W)
Time: 14:50:55
(UTC-04:00)

Daily predictions for brighter satellites

Satellite Brightness Start Highest point End
(mag) Time Altitude Azimuth Time Altitude Azimuth Time Altitude Azimuth
Cosmos 1908 Rocket 4.3 20:39:51 10° SSE 20:43:48 33° E 20:47:48 10° NNE
SL-27 R/B 2.7 20:46:36 10° NNW 20:50:13 73° WSW 20:53:45 10° S
Meteor 2-10 Rocket 4.0 20:45:34 10° NNW 20:51:21 77° W 20:56:55 10° S
Cosmos 1782 2.8 20:51:31 10° N 20:55:33 69° E 20:59:34 10° SSE
SEDSat Delta rocket 4.1 20:53:44 10° SW 20:57:38 26° SSE 21:01:12 10° ESE
Envisat 3.9 20:55:27 10° SE 20:59:52 31° ENE 21:04:18 10° N
Cosmos 1844 Rocket 3.4 20:55:23 10° SW 21:00:58 62° WNW 21:06:34 10° NNE
Cosmos 1825 2.8 20:59:11 10° SSE 21:02:42 37° E 21:06:15 10° NNE
FENGYUN 3A 4.0 20:57:31 10° S 21:02:54 72° WSW 21:08:17 10° NNW
Meteor 2-6 Rocket 4.3 20:57:56 10° N 21:03:54 82° E 21:09:40 10° S
deb Chang Zheng 4 4.4 21:01:32 10° NE 21:05:31 32° E 21:09:31 10° SSE
Cosmos 2278 Rocket 2.2 21:00:07 10° SSW 21:05:44 70° ESE 21:11:24 10° NNE
Atlas Centaur 2 2.9 21:04:35 10° WSW 21:07:11 18° SSW 21:09:39 10° SSE
ERS-1 Rocket 3.2 21:03:57 10° SSE 21:08:51 56° ENE 21:13:47 10° N
COSMOS 2406 4.3 21:03:38 10° NW 21:09:02 44° WSW 21:14:24 10° S
Cosmos 1420 Rocket 4.2 21:06:48 10° S 21:11:49 48° ESE 21:16:49 10° NNE
Cosmos 1844 4.2 21:06:48 10° SSW 21:12:32 68° WNW 21:18:20 10° NNE
H-2A R/B 2.8 21:09:40 12° SE 21:13:09 34° ENE 21:16:58 10° N
ISS -1.1 21:10:46 10° W 21:13:38 28° NNW 21:16:30 10° NNE
Timation 2 Rocket 4.5 21:08:42 10° N 21:14:21 41° ENE 21:19:05 14° SE
Cosmos 1140 Rocket 4.0 21:11:42 10° N 21:16:38 44° ENE 21:20:40 15° SE
APEX 3.7 21:13:13 10° S 21:16:52 47° ESE 21:21:37 10° NNE
Cosmos 2154 Rocket 4.0 21:11:38 10° S 21:17:49 74° E 21:24:01 10° N
Cosmos 1939 Rocket 3.1 21:15:00 12° SSE 21:18:21 47° ENE 21:22:09 10° N
Okean 3 3.9 21:14:43 10° N 21:18:50 44° E 21:22:11 14° SSE
Cosmos 407 Rocket 4.0 21:13:50 10° NNW 21:19:04 64° WSW 21:24:19 10° S
Abrixas 2.6 21:19:21 10° SW 21:22:18 51° SE 21:25:16 10° ENE
YAOGAN 11 4.2 21:17:53 10° SSE 21:22:24 86° WSW 21:27:00 10° NNW
COSMOS 2487 2.5 21:19:39 10° NNW 21:23:16 67° ENE 21:25:58 17° SSE
Cosmos 1238 Rocket 2.9 21:19:51 10° N 21:23:19 53° E 21:26:52 13° SSE
SPOT 5 3.7 21:23:32 16° SE 21:27:27 41° ENE 21:32:27 10° N
Cosmos 2082 Rocket 3.2 21:22:28 10° N 21:27:29 31° ENE 21:30:58 17° ESE
Cosmos 1452 Rocket 4.4 21:27:58 10° SW 21:33:06 54° WNW 21:38:17 10° N
Lacrosse 5 2.9 21:33:05 10° S 21:36:58 22° ESE 21:40:51 10° ENE
Cosmos 1184 Rocket 2.9 21:34:17 10° SSW 21:37:37 77° W 21:40:58 10° N
Intercosmos 25 3.3 21:38:00 23° SSE 21:39:47 42° E 21:42:47 10° NNE
H-2A R/B 4.0 21:40:11 12° E 21:42:08 15° ENE 21:44:59 10° NNE
Cosmos 2297 3.6 21:38:45 10° SSW 21:44:25 73° ESE 21:50:09 10° NNE
MetOp-B 4.4 21:43:40 22° SE 21:46:52 51° ENE 21:52:03 10° N
CZ-3A R/B 4.4 21:35:21 10° W 21:48:03 24° SW 21:51:21 15° S
Meteor 1-14 Rocket 4.3 21:43:49 13° SSE 21:48:42 54° E 21:54:08 10° NNE
H-2A R/B 4.4 21:44:35 10° WSW 21:49:23 44° S 22:18:16 10° ESE
Meteor 2-13 Rocket 4.4 21:44:53 10° S 21:51:01 80° E 21:57:12 10° N
Okean 2 Rocket 3.1 21:47:47 10° S 21:52:12 83° W 21:56:38 10° N
Cosmos 1606 4.3 21:51:41 10° NNW 21:55:15 33° W 21:58:46 10° SSW
Cosmos 1782 Rocket 4.2 21:52:40 10° SSW 21:57:04 59° W 22:01:30 10° N
SPOT 1/Viking Rocket 4.1 21:55:17 28° ESE 21:57:30 43° ENE 22:02:26 10° N
EO 1 Delta rocket 4.4 21:53:37 10° N 21:59:18 67° WNW 22:04:02 10° SSW
NOSS 8 (E) 4.3 21:58:12 10° SSW 22:01:41 78° ESE 22:05:16 10° NE
USA 229 DEB 4.0 21:56:07 10° NNW 22:03:09 59° NE 22:07:00 28° ESE
Cosmos 1242 Rocket 2.7 21:59:34 10° NNW 22:03:15 74° W 22:04:46 33° S
USA 229 4.0 21:56:14 10° NNW 22:03:15 58° NE 22:07:06 28° ESE
Cosmos 1850 Rocket 4.0 22:01:17 10° NNW 22:06:38 86° WSW 22:09:25 29° SSE
Elektron 3 4.2 22:07:03 10° NW 22:10:05 81° SW 22:11:15 44° SSE
ARGOS 3.4 22:09:05 34° SE 22:11:03 51° ENE 22:16:14 10° N
YAOGAN 6 2.4 22:10:46 61° SE 22:11:17 78° ENE 22:14:49 10° N
Cosmos 2369 Rocket 4.2 22:14:07 12° ENE 22:14:07 12° ENE 22:14:52 10° ENE
Cosmos 2218 Rocket 4.0 22:08:11 17° S 22:13:14 78° E 22:19:38 10° N
Lacrosse 5 rocket 1.1 22:09:26 10° SSW 22:13:22 61° SE 22:17:08 10° NE
Cosmos 1975 Rocket 3.8 22:09:14 10° NNW 22:13:24 48° W 22:16:09 20° SSW
GPS 2-05 Rocket1 3.2 22:10:15 10° W 22:13:49 52° SSW 22:13:49 52° SSW
OAO 3 Rocket 3.2 22:09:14 10° WSW 22:14:08 61° S 22:15:30 43° ESE
DNEPR-1 R/B 4.1 22:09:33 10° NW 22:14:34 56° WSW 22:16:17 34° S
PSLV R/B 3.2 22:16:18 67° W 22:16:18 67° W 22:19:12 10° NNW
SL-08 RB Rocket 4.2 22:15:38 40° ESE 22:16:31 45° ENE 22:20:57 10° N
CZ-4 R/B 3.9 22:15:05 10° NNE 22:19:37 49° E 22:20:06 47° ESE
Cosmos 1959 Rocket 4.4 22:16:51 18° S 22:21:30 89° W 22:27:37 10° N
CZ-4 SHROUD 3.6 22:23:32 57° W 22:23:32 57° W 22:26:33 10° NNW
Gbstr 26 Del rocket 4.5 22:21:14 10° NW 22:25:50 32° NNE 22:27:30 25° ENE
AVUM R/B 3.7 22:22:58 10° NNW 22:26:05 57° NNE 22:26:05 57° NNE
Cosmos 1536 Rocket 3.5 22:21:59 10° N 22:26:27 67° E 22:27:02 59° SE
Cosmos 1727 Rocket 3.9 22:22:07 10° N 22:28:16 68° E 22:30:27 41° SSE
Cosmos 1331 Rocket 3.9 22:27:09 45° SSE 22:28:34 65° ESE 22:33:40 10° NNE
Landsat 7 4.3 22:28:19 41° E 22:28:48 43° ENE 22:33:18 10° N
CZ-4C R/B 4.1 22:36:09 41° NE 22:36:09 41° NE 22:39:42 10° N
OAO 1 Rocket 4.3 22:32:40 10° W 22:37:56 67° S 22:38:33 61° SE
Cosmos 1110 Rocket 3.9 22:35:43 33° SSW 22:38:08 89° WNW 22:43:23 10° NNE
Meteor 1-20 Rocket 4.0 22:39:26 47° S 22:41:06 81° E 22:46:39 10° N
Cosmos 1833 Rocket 2.7 22:38:06 10° NNW 22:43:44 78° WSW 22:45:06 52° S
Terra 2.4 22:44:32 43° ENE 22:44:32 43° ENE 22:49:00 10° N
USA 245 3.8 22:46:36 48° W 22:46:38 48° W 22:50:42 10° NNW
Cosmos 1339 Rocket 4.4 22:42:07 10° N 22:48:21 82° E 22:50:00 52° SSE
H-2A R/B 4.4 22:46:49 12° SW 22:49:14 18° W 22:52:07 10° NW
NOSS 3-1 (C) 4.5 22:42:36 10° NNW 22:49:58 50° NE 22:53:01 35° ESE
DMSP B5D2-2 4.2 22:48:22 10° NNE 22:53:13 56° E 22:53:13 56° E
Cosmos 1821 Rocket 4.4 22:57:21 44° E 22:57:24 44° E 23:03:14 10° NNE
USA 234 3.7 22:53:10 10° NE 22:58:06 41° E 22:58:06 41° E
Cosmos 1300 Rocket 3.8 23:04:46 70° NW 23:04:46 70° NW 23:08:53 10° N
Spot 4 4.3 23:06:34 51° NE 23:06:34 51° NE 23:10:50 10° N
Cosmos 1486 Rocket 3.9 23:04:02 10° NNW 23:09:19 76° ENE 23:09:19 76° ENE
Okean 1 4.2 23:07:25 10° NNW 23:10:39 50° NW 23:10:39 50° NW
Cosmos 2082 Rocket 3.3 23:06:27 10° NW 23:11:31 34° WSW 23:12:49 31° SW
Cosmos 2285 Rocket 4.2 23:12:34 51° E 23:12:34 51° E 23:18:15 10° NNE
Okean 1 Rocket 3.5 23:13:53 62° NNW 23:13:53 62° NNW 23:17:47 10° N
Cosmos 1812 4.1 23:12:20 10° NNW 23:15:11 37° WNW 23:15:11 37° WNW
Lacrosse 5 2.5 23:14:35 10° WSW 23:19:34 54° NW 23:24:35 10° NE
H-2A R/B 2.2 23:20:50 69° WSW 23:20:57 69° WSW 23:26:15 10° NNW
Meteor 2-4 Rocket 4.2 23:21:38 10° N 23:26:19 47° NE 23:26:19 47° NE
Cosmos 1302 Rocket 4.5 23:32:20 53° W 23:32:48 55° WNW 23:38:01 10° N
Cosmos 1535 Rocket 4.4 23:37:19 75° SW 23:37:49 80° W 23:44:15 10° N
Meteor 2-14 Rocket 4.4 23:42:33 77° NE 23:42:33 77° NE 23:48:19 10° N
ASTEX 1 4.1 23:40:03 10° N 23:44:26 51° WNW 23:44:26 51° WNW
Meteor 2-15 4.5 23:40:30 10° N 23:46:10 71° NE 23:46:10 71° NE
Iridium 4 Rocket 3.9 23:43:57 10° N 23:49:23 75° NNW 23:49:23 75° NNW
Lacrosse 5 rocket 4.0 23:50:21 10° WNW 23:52:52 17° NW 23:55:20 10° N
